Regional Weather Roundup
Issued by NWS Charleston, WV

Home | Current Version | Previous Version | Graphics & Text | Print | Product List | Glossary On
Versions: 1 2 3 4 5 6 7 8 9 10 11 12 13 14 15 16 17 18 19 20 21 22 23 24 25 26 27 28 29 30 31 32 33 34 35 36 37 38 39 40 41 42 43 44 45 46 47 48 49 50
000
ASUS41 KRLX 181210
RWRRLX
West Virginia Regional Weather Roundup
National Weather Service Charleston WV
800 AM EDT SAT APR 18 2015

Note: "fair" indicates few or no clouds below 12,000 feet with no
significant weather and/or obstructions to visibility.

WVZ003-181300-
Northern Panhandle of West Virginia

CITY           SKY/WX    TMP DP  RH WIND       PRES   REMARKS
WHEELING       SUNNY     49  46  90 CALM      30.07S FOG
$$

WVZ009-181300-
Northwest West Virginia

CITY           SKY/WX    TMP DP  RH WIND       PRES   REMARKS
PARKERSBURG    SUNNY     49  47  93 CALM      30.08R FOG
$$

WVZ006-181300-
Western West Virginia

CITY           SKY/WX    TMP DP  RH WIND       PRES   REMARKS
HUNTINGTON     SUNNY     54  52  93 CALM      30.04R
$$

WVZ015-181300-
West Central West Virginia

CITY           SKY/WX    TMP DP  RH WIND       PRES   REMARKS
CHARLESTON     MOSUNNY   52  51  97 CALM      30.05R FOG
$$

WVZ022-031-181300-
North Central West Virginia

CITY           SKY/WX    TMP DP  RH WIND       PRES   REMARKS
CLARKSBURG     FOG       49  49 100 CALM      30.07S VSB 1/4
MORGANTOWN     SUNNY     50  48  93 CALM      30.08R FOG
$$

WVZ025-035-042-045-181300-
Southern West Virginia

CITY           SKY/WX    TMP DP  RH WIND       PRES   REMARKS
BECKLEY        SUNNY     55  52  89 CALM      30.09R
LOGAN            N/A     59  55  88 CALM      30.02F
BLUEFIELD      SUNNY     61  51  70 CALM      30.10R
LEWISBURG      SUNNY     51  50  94 CALM      30.09S FOG
$$

WVZ047-181300-
Northern Mountains of West Virginia

CITY           SKY/WX    TMP DP  RH WIND       PRES   REMARKS
ELKINS         FOG       48  46  93 CALM      30.11R VSB<1/4
$$

WVZ052-181300-
Eastern Panhandle of West Virginia

CITY           SKY/WX    TMP DP  RH WIND       PRES   REMARKS
MARTINSBURG    SUNNY     54  50  86 CALM      30.06R FOG
PETERSBURG     MOSUNNY   48  45  90 CALM      30.10R FOG
$$


USA.gov is the U.S. government's official web portal to all federal, state and local government web resources and services.